User: anonymous   Login
Location: Lawrence Hall of Science
(37.8785°N, 122.2415°W)
Time: 04:41:44
(UTC-08:00)
Language:

Cosmos 1461 - Orbit

View from above orbital plane
View from above orbital plane
View from above satellite
View from above satellite

Ground track
Ground track

The orbit data is extracted from the following two-line orbital elements,

1 14064U 83044A   16044.20672266  .00002736  00000-0  24442-3 0  9997
2 14064  65.0037 359.8565 0121216 243.9268 114.9330 14.92634377650194
Epoch (UTC): 13 February 2016 04:57:40
Eccentricity: 0.0121216
inclination: 65.0037°
perigee height: 505 km
apogee height: 674 km
right ascension of ascending node: 359.8565°
argument of perigee: 243.9268°
revolutions per day: 14.92634377
mean anomaly at epoch: 114.9330°
orbit number at epoch: 65019

The dashed part of the orbit path shows where the satellite is in the earth's shadow,  

DLR